Regional Weather Roundup
Issued by NWS San Diego, CA

Home | Current Version | Previous Version | Text Only | Print | Product List | Glossary On
Versions: 1 2 3 4 5 6 7 8 9 10 11 12 13 14 15 16 17 18 19 20 21 22 23 24 25 26 27 28 29 30 31 32 33 34 35 36 37 38 39 40 41 42 43 44 45 46 47 48 49 50
000
ASUS46 KSGX 101311
RWRSGX

SAN DIEGO HOURLY WEATHER ROUNDUP
NATIONAL WEATHER SERVICE SAN DIEGO CA
500 AM PST SAT DEC 10 2016

NOTE: "FAIR" INDICATES FEW OR NO CLOUDS BELOW 12,000 FEET WITH NO
SIGNIFICANT WEATHER AND/OR OBSTRUCTIONS TO VISIBILITY.

CAZ042-043-060-061-PZZ750-775-101400-

GREATER SAN DIEGO AREA

CITY           SKY/WX    TMP DP  RH WIND       PRES   REMARKS
SAN DIEGO AP   CLOUDY    58  52  80 N5        30.18R
NATIONAL CITY    N/A     57  54  89 CALM      30.18R
CHULA VISTA      N/A     56  54  91 CALM      30.09R
IMPERIAL BEACH CLOUDY    59  52  77 E5        30.18R
BROWN FIELD    CLOUDY    53  52  96 CALM      30.17R FOG
MIRAMAR MCAS   CLOUDY    58  54  86 NE5       30.17R FOG
MONTGOMERY FLD CLOUDY    55  51  86 NE5       30.17R FOG

$$

NORTH SAN DIEGO COUNTY

CITY           SKY/WX    TMP DP  RH WIND       PRES   REMARKS
CAMP PENDLETON PTCLDY    52  52 100 CALM      30.17S FOG
OCEANSIDE AP   MOCLDY    55  53  93 NE7       30.16S FOG
OCEANSIDE HBR    N/A     55  53  92 CALM      30.19S
CARLSBAD       CLOUDY    56  54  93 NE3       30.16R FOG
DEL MAR          N/A     58  56  92 CALM      30.19R
LA JOLLA SCRIP   N/A     58  57  94 NW1       30.16R
FALLBROOK        N/A     51  51 100 CALM      30.17R
ESCONDIDO        N/A     53  51  92 W2        30.19R

$$

EAST SAN DIEGO COUNTY

CITY           SKY/WX    TMP DP  RH WIND       PRES   REMARKS
RAMONA           N/A     47  46  97 NW8       30.17R VSB 1/4
SANTEE LAKES     N/A     52  50  93 CALM      30.17R
LA MESA          N/A     52  50  93 CALM      30.11R
JAMUL            N/A     50  49  95 CALM      30.18R
DESCANSO N       N/A     43  38  84 NE5       30.14R
CAMPO            N/A     38  36  92 E5        30.14R WCI  34

$$

ORANGE COUNTY AND THE LOS ANGELES BASIN

CITY           SKY/WX    TMP DP  RH WIND       PRES   REMARKS
JOHN WAYNE AP  CLOUDY    58  56  93 E7        30.15S FOG
LAGUNA BEACH     N/A     58  56  94 NW3       30.11S
LAKE FOREST FR   N/A     53  50  89 CALM      30.06S
HUNTINGTON BCH   N/A     58  56  92 CALM      30.17S
LOS ALAMITOS   CLOUDY    56  53  89 NE5       30.16R
FULLERTON      CLOUDY    56  53  90 E3        30.15S FOG
LONG BEACH     CLOUDY    56  52  86 NE3       30.16S FOG
L.A. AP        MOCLDY    56  54  93 NE5       30.16S FOG
L.A. DOWNTOWN  CLOUDY    55  53  93 CALM      30.15S FOG

$$

THE INLAND EMPIRE

CITY           SKY/WX    TMP DP  RH WIND       PRES   REMARKS
CORONA         CLOUDY    48  47  96 E5        30.17S
CHINO          MOCLDY    46  46 100 CALM      30.17S HAZE
ONTARIO        PTCLDY    46  44  93 CALM      30.15S FOG
SAN BERNARDINO FAIR      45  39  81 CALM      30.16S
RIVERSIDE AP   CLEAR     46  44  93 CALM      30.16S FOG
MORENO VALLEY    N/A     49  48  95 CALM      28.27R
MARCH ARB      CLEAR     41  41 100 CALM      30.15S FOG
HORSETHIEF CYN   N/A     47  40  78 CALM      30.20R
PERRIS           N/A     45  44  96 CALM      30.20S
HEMET EAST       N/A     49  40  72 CALM      30.21R
FRENCH VALLEY  NOT AVBL
TEMECULA         N/A     46  45  97 E1        30.23R

$$

SAN BERNARDINO AND RIVERSIDE COUNTY MOUNTAINS

CITY           SKY/WX    TMP DP  RH WIND       PRES   REMARKS
BIG BEAR AP    CLEAR     28  25  86 CALM      30.27S
ANGELUS OAKS     N/A     48  37  65 CALM      30.12S
PINE COVE        N/A     46  28  49 N5        30.16R

$$

SOUTHERN DESERT INCLUDING THE COACHELLA VALLEY

CITY           SKY/WX    TMP DP  RH WIND       PRES   REMARKS
PALM SPRINGS   CLEAR     50  43  77 CALM        N/A
PALM DESERT      N/A     47  41  79 CALM      31.55S
THERMAL        CLEAR     42  37  82 W6        30.10S
BLYTHE         CLEAR     47  20  34 W3        30.14R
IMPERIAL AP    CLEAR     45  30  55 SW6       30.10S
EL CENTRO NAS  CLEAR     46  28  49 SW7       30.12S
YUMA AZ        CLEAR     51  24  34 N5        30.11

$$

UPPER DESERT

CITY           SKY/WX    TMP DP  RH WIND       PRES   REMARKS
VICTORVILLE AP   N/A     46  36  66 CALM      30.14F
HESPERIA         N/A     45  39  79 W3        30.27F
PALMDALE       CLEAR     50  39  66 S7        30.15F
LANCASTER      CLEAR     54  45  71 NW13      30.14F
EDWARDS AFB    CLEAR     40  32  74 CALM      30.11F
DAGGETT        PTCLDY    38  17  42 NW3       30.14F
29 PALMS N     CLEAR     43  33  68 SW7       30.21R
NEEDLES        PTCLDY    45  17  32 SW5       30.15S

$$

REGIONAL REPORTS

CITY           SKY/WX    TMP DP  RH WIND       PRES   REMARKS
SANTA BARBARA  MOCLDY    50  50 100 CALM      30.14F FOG
SANDBERG       CLEAR     51  46  83 NW15G23   30.21S
LAS VEGAS NV   MOCLDY    41  16  36 CALM      30.14F
PHOENIX AZ     PTCLDY    49  38  65 SE5       30.10F
TIJUANA        CLOUDY    54  48  82 CALM      30.18
ENSENADA NW      N/A     55  32  41 CALM      30.14R

$$

OFFSHORE ISLANDS

CITY           SKY/WX    TMP DP  RH WIND       PRES   REMARKS
CATALINA ARPT  FOG       56  56 100 W14       30.16S VSB<1/4
SAN NICOLAS IS FOG       58  32  37 W24       30.16F VSB 1/4

$$

MARINE AND OFFSHORE BUOY REPORTS

STATION/POSITION SKY/WX   TEMP    WIND        PRES    SWELL
                          AIR SEA DIR/SP/G            HT/PER/DIR
                          (F)     (DEG/KT/KT) (MB)    (FT/S/D)
TANNER BANKS               61 61  310/ 19/ 23 1021.6    3/320/15
S CLEMENTE BASIN           60 62  300/ 10/ 14 1021.1    3/260/14
SAN NICOLAS IS.               58                N/A     3/280/14
SO. S. ROSA ISLA           59 59  300/ 12/ 16 1021.9    5/290/ 9
W. S. BARBARA CH           58 56  320/ 10/ 12 1021.9    5/280/10
M. S. BARBARA CH                  300/ 10/ 14 1020.9
S. MONICA BASIN            60 61   40/  8/ 10 1020.5F   3/270/14
S PEDRO CHANNEL               61                N/A     2/270/15
CMP PENDLETON NS              60                N/A     2/230/14
OCEANSIDE OFFSHR              62                N/A     2/220/14
TORREY PINES OTR              61                N/A     2/250/15
POINT LOMA SOUTH              62                N/A     2/270/15

$$




USA.gov is the U.S. government's official web portal to all federal, state and local government web resources and services.